Overview Statistics Trail Chart Weather Telemetry Raw packets
 

This is the latest recevied weather packets stored in our database for station/object KK7MLS-13. If no packets are shown the sender has not sent any weather packets the latest 10 day(s).

<< 89 90 91 92 93 94 95 >>
Time Temp. Humidity Pressure Rain* Wind** Luminosity Snow
1788017565 13.33° C 92% 1019.7 hPa 0 mm - 72 W/m² -
1788017262 13.33° C 92% 1019.6 hPa 0 mm - 53 W/m² -
1788016958 13.33° C 92% 1019.6 hPa 0 mm - 43 W/m² -
1788016656 12.78° C 93% 1019.5 hPa 0 mm - 44 W/m² -
1788016355 12.78° C 94% 1019.5 hPa 0 mm - 51 W/m² -
1788016054 12.78° C 94% 1019.5 hPa 0 mm - 52 W/m² -
1788015754 12.78° C 94% 1019.4 hPa 0 mm - 43 W/m² -
1788015449 12.78° C 94% 1019.3 hPa 0 mm - 47 W/m² -
1788015144 12.22° C 94% 1019.2 hPa 0 mm - 36 W/m² -
1788014842 12.22° C 94% 1019.4 hPa 0 mm - 25 W/m² -
1788014537 12.22° C 94% 1019.3 hPa 0 mm - 29 W/m² -
1788014232 12.22° C 94% 1019.3 hPa 0 mm - 24 W/m² -
1788013927 12.22° C 94% 1019.1 hPa 0 mm - 22 W/m² -
1788013627 12.22° C 94% 1018.9 hPa 0 mm - 20 W/m² -
1788013321 12.22° C 94% 1018.9 hPa 0 mm - 14 W/m² -
1788013022 12.22° C 94% 1018.9 hPa 0 mm - 13 W/m² -
1788012721 12.22° C 94% 1018.9 hPa 0 mm - 13 W/m² -
1788012417 12.22° C 93% 1018.9 hPa 0 mm - 11 W/m² -
1788012116 12.22° C 93% 1019 hPa 0 mm - 9 W/m² -
1788011811 12.22° C 93% 1018.8 hPa 0 mm - 9 W/m² -
1788011509 12.22° C 93% 1018.7 hPa 0 mm - 7 W/m² -
1788011205 12.22° C 92% 1018.7 hPa 0 mm - 6 W/m² -
1788010898 12.22° C 92% 1018.5 hPa 0 mm - 4 W/m² -
1788010598 12.22° C 92% 1018.5 hPa 0 mm - 3 W/m² -
1788010297 12.78° C 92% 1018.6 hPa 0 mm - 2 W/m² -

* Rain latest hour (hover to see other rain measurements)
** Current wind speed in m/s (hover to see current wind gust speed)